• In Spain
  • List of Countries
  • For 7 days
  • Water Temperature
  • Satellite Maps
  • Weather Map
  • Weather Widgets
  • user-avatar
    Login

    Hourly Weather Brisbane

    Today, 22 August, Tuesday

    Time Temperature Precipitation Wind Pressure Humidity
    00:00 +16°C° 0.2 mm 2 mps 763 mmHg 83%
    01:00 +16°C° 0.2 mm 3 mps 763 mmHg 84%
    02:00 +14°C° 0 mm 3 mps 762 mmHg 84%
    03:00 +14°C° 0 mm 3 mps 762 mmHg 84%
    04:00 +14°C° 0 mm 3 mps 762 mmHg 86%
    05:00 +14°C° 0 mm 3 mps 762 mmHg 85%
    06:00 +16°C° 0 mm 3 mps 762 mmHg 85%
    07:00 +16°C° 0 mm 3 mps 762 mmHg 84%
    08:00 +18°C° 0 mm 3 mps 762 mmHg 75%
    09:00 +20°C° 0 mm 4 mps 762 mmHg 65%
    10:00 +23°C° 0 mm 4 mps 763 mmHg 56%
    11:00 +25°C° 0 mm 4 mps 762 mmHg 48%
    12:00 +27°C° 0 mm 4 mps 761 mmHg 41%
    13:00 +28°C° 0 mm 4 mps 761 mmHg 33%
    14:00 +28°C° 0 mm 4 mps 761 mmHg 36%
    15:00 +27°C° 0 mm 4 mps 760 mmHg 38%
    16:00 +26°C° 0 mm 4 mps 760 mmHg 45%
    17:00 +23°C° 0.1 mm 4 mps 761 mmHg 55%
    18:00 +21°C° 0.1 mm 4 mps 761 mmHg 64%
    19:00 +20°C° 0.1 mm 4 mps 761 mmHg 74%
    20:00 +19°C° 0.1 mm 4 mps 762 mmHg 77%
    21:00 +18°C° 0.1 mm 4 mps 762 mmHg 80%
    22:00 +18°C° 0.1 mm 3 mps 762 mmHg 83%
    23:00 +17°C° 0 mm 3 mps 762 mmHg 84%

    Tomorrow, 23 August, Wednesday

    Time Temperature Precipitation Wind Pressure Humidity
    00:00 +17°C° 0 mm 3 mps 762 mmHg 86%
    01:00 +16°C° 0 mm 3 mps 762 mmHg 87%
    02:00 +16°C° 0 mm 2 mps 762 mmHg 88%
    03:00 +15°C° 0 mm 2 mps 763 mmHg 89%
    04:00 +15°C° 0 mm 2 mps 763 mmHg 90%
    05:00 +15°C° 0 mm 2 mps 763 mmHg 88%
    06:00 +15°C° 0 mm 2 mps 763 mmHg 87%
    07:00 +15°C° 0 mm 2 mps 763 mmHg 86%
    08:00 +19°C° 0 mm 1 mps 763 mmHg 75%
    09:00 +22°C° 0 mm 1 mps 763 mmHg 63%
    10:00 +25°C° 0 mm 1 mps 763 mmHg 52%
    11:00 +26°C° 0 mm 2 mps 762 mmHg 45%
    12:00 +28°C° 0 mm 2 mps 762 mmHg 39%
    13:00 +29°C° 0 mm 2 mps 761 mmHg 32%
    14:00 +29°C° 0 mm 3 mps 761 mmHg 37%
    15:00 +28°C° 0 mm 3 mps 760 mmHg 42%
    16:00 +27°C° 0 mm 4 mps 760 mmHg 46%
    17:00 +25°C° 0 mm 4 mps 760 mmHg 55%
    18:00 +22°C° 0 mm 4 mps 760 mmHg 63%
    19:00 +21°C° 0 mm 4 mps 761 mmHg 72%
    20:00 +20°C° 0.1 mm 4 mps 761 mmHg 72%
    21:00 +19°C° 0.1 mm 4 mps 761 mmHg 72%
    22:00 +19°C° 0.1 mm 4 mps 761 mmHg 72%
    23:00 +18°C° 0 mm 4 mps 761 mmHg 71%

    Day after tomorrow, 24 August, Thursday

    Time Temperature Precipitation Wind Pressure Humidity
    00:00 +17°C° 0 mm 3 mps 761 mmHg 70%
    01:00 +17°C° 0 mm 3 mps 760 mmHg 69%
    02:00 +16°C° 0 mm 3 mps 760 mmHg 68%
    03:00 +16°C° 0 mm 3 mps 760 mmHg 68%
    04:00 +14°C° 0 mm 3 mps 760 mmHg 67%
    05:00 +16°C° 0.1 mm 3 mps 760 mmHg 67%
    06:00 +16°C° 0.1 mm 3 mps 760 mmHg 67%
    07:00 +16°C° 0.1 mm 3 mps 761 mmHg 67%
    08:00 +19°C° 0.5 mm 3 mps 761 mmHg 59%
    09:00 +22°C° 0.5 mm 3 mps 761 mmHg 51%
    10:00 +25°C° 0.5 mm 3 mps 760 mmHg 43%
    11:00 +26°C° 0.6 mm 3 mps 760 mmHg 42%
    12:00 +27°C° 0.6 mm 3 mps 759 mmHg 40%
    13:00 +28°C° 0.6 mm 3 mps 758 mmHg 38%
    14:00 +28°C° 0.1 mm 4 mps 758 mmHg 35%
    15:00 +28°C° 0.1 mm 4 mps 757 mmHg 32%
    16:00 +28°C° 0.1 mm 4 mps 757 mmHg 28%
    17:00 +26°C° 0.3 mm 4 mps 758 mmHg 32%
    18:00 +23°C° 0.3 mm 4 mps 758 mmHg 37%
    19:00 +20°C° 0.3 mm 3 mps 759 mmHg 41%
    20:00 +19°C° 0 mm 3 mps 759 mmHg 46%
    21:00 +18°C° 0 mm 4 mps 760 mmHg 51%
    22:00 +17°C° 0 mm 4 mps 760 mmHg 56%
    23:00 +15°C° 0.1 mm 4 mps 760 mmHg 58%

    25 August, Friday

    Time Temperature Precipitation Wind Pressure Humidity
    00:00 +15°C° 0.1 mm 4 mps 760 mmHg 60%
    01:00 +14°C° 0.1 mm 4 mps 760 mmHg 63%
    02:00 +14°C° 0 mm 4 mps 760 mmHg 68%
    03:00 +13°C° 0 mm 4 mps 760 mmHg 73%
    04:00 +13°C° 0 mm 4 mps 760 mmHg 78%
    05:00 +13°C° 0 mm 4 mps 760 mmHg 77%
    06:00 +13°C° 0 mm 4 mps 761 mmHg 76%
    07:00 +13°C° 0 mm 4 mps 762 mmHg 75%
    08:00 +15°C° 0 mm 4 mps 762 mmHg 65%
    09:00 +18°C° 0 mm 4 mps 762 mmHg 54%
    10:00 +20°C° 0 mm 4 mps 762 mmHg 44%
    11:00 +21°C° 0.1 mm 4 mps 761 mmHg 39%
    12:00 +22°C° 0.1 mm 4 mps 761 mmHg 34%
    13:00 +23°C° 0.1 mm 4 mps 760 mmHg 29%
    14:00 +23°C° 0 mm 4 mps 760 mmHg 30%
    15:00 +23°C° 0 mm 4 mps 760 mmHg 32%
    16:00 +22°C° 0 mm 5 mps 760 mmHg 33%
    17:00 +21°C° 0 mm 5 mps 761 mmHg 41%
    18:00 +19°C° 0 mm 5 mps 762 mmHg 48%
    19:00 +17°C° 0 mm 5 mps 763 mmHg 56%
    20:00 +16°C° 0 mm 5 mps 763 mmHg 59%
    21:00 +15°C° 0 mm 6 mps 764 mmHg 62%
    22:00 +14°C° 0 mm 6 mps 764 mmHg 66%
    23:00 +14°C° 0 mm 6 mps 764 mmHg 66%

    26 August, Saturday

    Time Temperature Precipitation Wind Pressure Humidity
    00:00 +13°C° 0 mm 5 mps 764 mmHg 67%
    01:00 +13°C° 0 mm 5 mps 764 mmHg 67%
    02:00 +12°C° 0 mm 5 mps 764 mmHg 69%
    03:00 +12°C° 0 mm 5 mps 764 mmHg 71%
    04:00 +10°C° 0 mm 5 mps 763 mmHg 73%
    05:00 +12°C° 0 mm 5 mps 764 mmHg 73%
    06:00 +12°C° 0 mm 5 mps 765 mmHg 73%
    07:00 +12°C° 0 mm 5 mps 765 mmHg 73%
    08:00 +14°C° 0 mm 5 mps 765 mmHg 65%
    09:00 +16°C° 0 mm 5 mps 765 mmHg 58%
    10:00 +20°C° 0 mm 5 mps 765 mmHg 50%
    11:00 +21°C° 0 mm 5 mps 764 mmHg 46%
    12:00 +22°C° 0 mm 5 mps 764 mmHg 43%
    13:00 +23°C° 0 mm 5 mps 763 mmHg 40%
    14:00 +23°C° 0 mm 5 mps 763 mmHg 41%
    15:00 +22°C° 0 mm 5 mps 763 mmHg 43%
    16:00 +22°C° 0 mm 5 mps 763 mmHg 44%
    17:00 +20°C° 0 mm 5 mps 764 mmHg 50%
    18:00 +19°C° 0 mm 5 mps 764 mmHg 55%
    19:00 +17°C° 0 mm 5 mps 765 mmHg 61%
    20:00 +17°C° 0 mm 4 mps 765 mmHg 65%
    21:00 +15°C° 0 mm 4 mps 765 mmHg 69%
    22:00 +14°C° 0 mm 4 mps 766 mmHg 73%
    23:00 +13°C° 0 mm 4 mps 765 mmHg 77%

    27 August, Sunday

    Time Temperature Precipitation Wind Pressure Humidity
    00:00 +13°C° 0 mm 3 mps 765 mmHg 80%
    01:00 +13°C° 0 mm 3 mps 765 mmHg 83%
    02:00 +12°C° 0.1 mm 3 mps 765 mmHg 85%
    03:00 +12°C° 0.1 mm 3 mps 765 mmHg 86%
    04:00 +11°C° 0.1 mm 3 mps 765 mmHg 88%
    05:00 +12°C° 0.1 mm 3 mps 765 mmHg 86%
    06:00 +12°C° 0.1 mm 3 mps 766 mmHg 84%
    07:00 +12°C° 0.1 mm 3 mps 766 mmHg 82%
    08:00 +16°C° 0 mm 3 mps 766 mmHg 71%
    09:00 +19°C° 0 mm 3 mps 766 mmHg 60%
    10:00 +21°C° 0 mm 3 mps 766 mmHg 49%
    11:00 +22°C° 0 mm 3 mps 765 mmHg 45%
    12:00 +23°C° 0 mm 4 mps 764 mmHg 41%
    13:00 +26°C° 0 mm 4 mps 764 mmHg 38%
    14:00 +25°C° 0.1 mm 4 mps 764 mmHg 42%
    15:00 +23°C° 0.1 mm 4 mps 763 mmHg 46%
    16:00 +22°C° 0.1 mm 5 mps 763 mmHg 51%
    17:00 +20°C° 0.1 mm 4 mps 764 mmHg 60%
    18:00 +19°C° 0.1 mm 4 mps 764 mmHg 69%
    19:00 +17°C° 0.1 mm 4 mps 765 mmHg 78%
    20:00 +15°C° 0.2 mm 4 mps 765 mmHg 80%
    21:00 +16°C° 0.2 mm 3 mps 765 mmHg 82%
    22:00 +14°C° 0.2 mm 3 mps 765 mmHg 84%
    23:00 +14°C° 0.1 mm 3 mps 765 mmHg 85%
    Show more